星链-5412 (STARLINK-5412 )

导读 | 星芒AI

STARLINK-5412 是 SpaceX Starlink 项目中的一颗低轨通信卫星,属于第二代 Starlink 卫星星座的一部分。该卫星旨在为全球用户提供高速、低延迟的互联网服务,尤其服务于传统网络难以覆盖的偏远地区。它搭载先进通信设备,支持 Ku 和 Ka 频段,具备更高的带宽和更强的信号稳定性。STARLINK-5412 于 2023 年发射,是 SpaceX 扩展全球宽带网络覆盖计划的重要组成部分。

基本信息
目录编号:
54806
目录名称:
STARLINK-5412
国际标识:
2022-175BA
轨道中心:
EARTH
卫星名称:
星链-5412
卫星全名:
星链-5412 (STARLINK-5412 )
卫星状态:
在轨 (已飞行1100 天)
发射日期:
2022-12-17 UTC
国别 :
美国 (US)
星等 :
--
轨道信息
数据来源 国际轨道数据
星历时间: 2025-12-20T17:20:44+0800
1天前
查看轨道信息
半长轴: 6917.891km
偏心率: 0.0001103
轨道倾角: 53.219°
近地点辐角 95.481°
升交点赤经 24.707°
平近点角 264.631°
近地点: 538.99km
远地点: 540.518km
周期: 95.438分钟
每日圈数: 15.088366
详细信息
固有亮度:
5
最大亮度:
2.5
卫星平台:
Starlink v1.5
覆盖范围:
全球
运营商:
太空探索技术公司
运营商所在国:
美国
制造商(研发单位):
太空探索技术公司
制造商所在国:
美国
使用方式:
暂无
卫星简介
星链(Starlink)计划是由太空探索技术公司(SpaceX)提出的一个巨型低轨卫星互联网星座项目,计划在2019年至2024年间在太空搭建由约1.2万颗卫星组成的“星链”网络,其中1584颗将部署在地球上空550千米处的近地轨道,并从2020年开始工作。该卫星仍在工作。
2D轨道图
3D轨道图
轨道高度分析图
轨道倾角分析图
轨道综合分析图
查看轨道综合分析图